Powrót do katalogu

ESSA 4

TOS-B

AktywnyPogodaLEO
NORAD 2657·PAYLOAD·🇺🇸 United States

Wystrzelony Jan 26, 1967 z Vandenberg Space Force Base

Loading…

Następne Przeloty (najbliższe 24 godziny)

TLE

ŚwieżeSource: Space-Track

Epoka: Sep 14, 2026, 12:28 UTC

1 02657U 67006A   26257.51954962 -.00000056  00000-0 -35487-4 0  9996
2 02657 102.0775 100.3518 0073210 104.3654 283.9160 12.69892441763885

Śledź ESSA 4 w czasie rzeczywistym z AllMySat

Download on the App Store